METAR Formatted Surface Weather Observation
Issued by NWS

Home | Current Version | Previous Version | Text Only | Print | Product List | Glossary On
Versions: 1 2 3 4 5 6 7 8 9 10 11 12 13 14 15 16 17 18 19 20 21
839
SAUS46 KSTO 250158 COR
MTRBLU
METAR KBLU 250152Z AUTO 26005KT 10SM CLR 23/05 A3009 RMK AO2 SLP086
T02330050 TSNO



USA.gov is the U.S. government's official web portal to all federal, state and local government web resources and services.